This is the latest recevied weather packets stored in our database for station/object KE5WTH-14. If no packets are shown the sender has not sent any weather packets the latest 1 day(s).
| Time | Temp. | Humidity | Pressure | Rain* | Wind** | Luminosity | Snow |
|---|---|---|---|---|---|---|---|
| 1778055934 | 13.89° C | 77% | 1010.2 hPa | 0 mm | 1.79 m/s, 1° | 0 W/m² | - |
| 1778055753 | 13.89° C | 77% | 1010.2 hPa | 0 mm | 1.79 m/s, 0° | 0 W/m² | - |
| 1778055717 | 13.89° C | 76% | 1010.2 hPa | 0 mm | 1.79 m/s, 20° | 0 W/m² | - |
| 1778055688 | 13.89° C | 76% | 1010.2 hPa | 0 mm | 2.24 m/s, 10° | 0 W/m² | - |
| 1778055659 | 13.89° C | 77% | 1010.2 hPa | 0 mm | 2.24 m/s, 0° | 0 W/m² | - |
| 1778055629 | 13.89° C | 77% | 1010.1 hPa | 0 mm | 1.79 m/s, 4° | 0 W/m² | - |
| 1778055453 | 13.89° C | 76% | 1010.2 hPa | 0 mm | 1.79 m/s, 23° | 0 W/m² | - |
| 1778055392 | 13.89° C | 76% | 1010.1 hPa | 0 mm | 2.24 m/s, 16° | 0 W/m² | - |
| 1778055334 | 13.89° C | 76% | 1010.2 hPa | 0 mm | 2.68 m/s, 0° | 0 W/m² | - |
| 1778055271 | 13.89° C | 76% | 1010.3 hPa | 0 mm | 2.68 m/s, 0° | 0 W/m² | - |
| 1778055213 | 13.89° C | 76% | 1010.3 hPa | 0 mm | 2.68 m/s, 0° | 0 W/m² | - |
| 1778055154 | 13.89° C | 76% | 1010.3 hPa | 0 mm | 2.24 m/s, 340° | 0 W/m² | - |
| 1778055093 | 13.89° C | 76% | 1010.2 hPa | 0 mm | 2.24 m/s, 16° | 0 W/m² | - |
| 1778055046 | 13.89° C | 76% | 1010.3 hPa | 0 mm | 2.24 m/s, 350° | 0 W/m² | - |
| 1778055016 | 13.89° C | 76% | 1010.3 hPa | 0 mm | 3.13 m/s, 17° | 0 W/m² | - |
| 1778054987 | 13.89° C | 76% | 1010.3 hPa | 0 mm | 3.13 m/s, 7° | 0 W/m² | - |
| 1778054954 | 13.89° C | 76% | 1010.4 hPa | 0 mm | 2.68 m/s, 0° | 0 W/m² | - |
| 1778054795 | 13.89° C | 76% | 1010.3 hPa | 0 mm | 2.24 m/s, 0° | 0 W/m² | - |
| 1778054767 | 13.89° C | 76% | 1010.2 hPa | 0 mm | 2.24 m/s, 13° | 0 W/m² | - |
| 1778054743 | 13.89° C | 76% | 1010.3 hPa | 0 mm | 2.24 m/s, 0° | 0 W/m² | - |
| 1778054712 | 13.89° C | 76% | 1010.2 hPa | 0 mm | 2.24 m/s, 0° | 0 W/m² | - |
| 1778054678 | 13.89° C | 76% | 1010.1 hPa | 0 mm | 1.79 m/s, 321° | 0 W/m² | - |
| 1778054518 | 13.89° C | 76% | 1010 hPa | 0 mm | 2.24 m/s, 357° | 0 W/m² | - |
| 1778054488 | 13.89° C | 76% | 1010 hPa | 0 mm | 2.24 m/s, 3° | 0 W/m² | - |
| 1778054459 | 13.89° C | 76% | 1010 hPa | 0 mm | 1.79 m/s, 1° | 0 W/m² | - |
* Rain latest hour (hover to see other rain measurements)
** Current wind speed in m/s (hover to see current wind gust speed)